KINEIS-1C

Last updated on Wed Sep 09 2026 00:02:55 GMT+0000 (Coordinated Universal Time)

1 60081U 24114C 26251.61132537 .00000511 00000+0 73183-4 0 9993 2 60081 97.9832 275.2647 0000514 84.8458 275.2812 14.80736674119728
UTC large
Height (km)
Speed (km/s)
/
Latitude / Longitude
Inclination (degrees)
Orbital Period (minutes)
Azimuth
Elevation
Range (km)
Doppler Factor

Next 0 passes for location: London (51.5072 / 0.1276)

No passes found over London.
KINEIS-1C